sat.trackr.live / text

‹ back to catalog

ONEWEB-0690

NORAD 61598 · 2024-188E

PAYLOAD ACTIVE UNKNOWN

§ Identity

Operator
Country
UK
Launch date
2024-10-20
Launch site
AFWTR
Launch vehicle
Mass (kg)
RCS (m²)

Purposes: comms

External: N2YO · Heavens-Above · Gunter

§ Orbital elements

Epoch: 2026-09-19T13:55:18.468768Z

Period
109.80 min
Inclination
87.8972°
Eccentricity
0.0002124
Mean motion
13.11416432 rev/d
Perigee alt
1,216.1 km
Apogee alt
1,219.3 km
Semi-major
7,595.8 km
B*
1.5628e-3
RAAN
2.3037°
Arg perigee
86.0369°
Mean anomaly
274.1001°
Rev number
9,700

§ Raw data

ONEWEB-06901 61598U 24188E   26262.58007487  .00000567  00000+0  15628-2 0  99902 61598  87.8972   2.3037 0002124  86.0369 274.1001 13.11416432 97005

JSON: /api/v1/satellites/61598 · /tle

For live sub-satellite position, see the globe view (requires WebGL).

§ Visibility from observer

Set your observer location to see the next 7 days of passes ≥ 10°. The values pass through the URL so the page stays shareable.

No JS? Fill the form by hand. The geolocation button needs JavaScript.